Location: Newark
(60.6561°N, 46.5772°E)
Time: 00:15:23
(UTC+00:00)

Tiros 1 despin weight - Pass Details

Date: 24 October 2019
Orbit: 594 x 642 km, 48.2° (Epoch: 12 November)

Event Time Altitude Azimuth Distance (km) Brightness Sun altitude
Rises 20:45:35 0° 210° (SSW) 2,920 - -41.2°
Reaches altitude 10° 20:49:13 10° 180° (S) 2,023 - -41.2°
Maximum altitude 20:51:06 12° 157° (SSE) 1,877 - -41.2°
Drops below altitude 10° 20:52:58 10° 133° (SE) 2,032 - -41.1°
Sets 20:56:39 0° 104° (ESE) 2,948 - -41.1°
